{"data":{"norad_id":66878,"epoch":"2026-09-20T05:17:55.393728Z","epoch_age_seconds":108177,"freshness":"FRESH","line1":"1 66878U 25283A   26263.22078002  .00034355  00000+0  10228-2 0  9999","line2":"2 66878  53.1584 198.7531 0001250  93.9412 266.1733 15.34413242 45650","mean_motion":15.34413242,"eccentricity":0.000125,"inclination_deg":53.1584,"raan_deg":198.7531,"arg_perigee_deg":93.9412,"mean_anomaly_deg":266.1733,"bstar":0.0010228,"rev_number":4565,"period_min":93.846948174343,"perigee_km":461.80878236522,"apogee_km":463.51898258584,"semimajor_km":6840.8008824755,"source":"CELESTRAK","updated_at":"2026-09-21T09:00:36.031923Z"}}